Regional Weather Roundup
Issued by NWS Charleston, WV

Home | Current Version | Previous Version | Text Only | Print | Product List | Glossary On
Versions: 1 2 3 4 5 6 7 8 9 10 11 12 13 14 15 16 17 18 19 20 21 22 23 24 25 26 27 28 29 30 31 32 33 34 35 36 37 38 39 40 41 42 43 44 45 46 47 48 49 50
000
ASUS41 KRLX 061110
RWRRLX
West Virginia Regional Weather Roundup
National Weather Service Charleston WV
600 AM EST FRI MAR 06 2015

Note: "fair" indicates few or no clouds below 12,000 feet with no
significant weather and/or obstructions to visibility.

WVZ003-061200-
Northern Panhandle of West Virginia

CITY           SKY/WX    TMP DP  RH WIND       PRES   REMARKS
WHEELING       MOCLDY     1  -3  83 S5        30.51R WCI  -9
$$

WVZ009-061200-
Northwest West Virginia

CITY           SKY/WX    TMP DP  RH WIND       PRES   REMARKS
PARKERSBURG    FOG       -1  -5  82 CALM      30.58R VSB 1
$$

WVZ006-061200-
Western West Virginia

CITY           SKY/WX    TMP DP  RH WIND       PRES   REMARKS
HUNTINGTON     FOG        3   0  87 CALM      30.53S VSB 1/2
$$

WVZ015-061200-
West Central West Virginia

CITY           SKY/WX    TMP DP  RH WIND       PRES   REMARKS
CHARLESTON     PTCLDY     6   2  83 CALM      30.53R
$$

WVZ022-031-061200-
North Central West Virginia

CITY           SKY/WX    TMP DP  RH WIND       PRES   REMARKS
CLARKSBURG     MOCLDY    -4  -7  87 CALM      30.50S
MORGANTOWN     MOCLDY    -2  -9  72 CALM      30.51R
$$

WVZ025-035-042-045-061200-
Southern West Virginia

CITY           SKY/WX    TMP DP  RH WIND       PRES   REMARKS
BECKLEY        PTCLDY     5   0  79 CALM      30.37R
LOGAN          NOT AVBL
BLUEFIELD      CLOUDY     9   3  77 CALM      30.34R
LEWISBURG        N/A      3   0  84 CALM      30.39R
$$

WVZ047-061200-
Northern Mountains of West Virginia

CITY           SKY/WX    TMP DP  RH WIND       PRES   REMARKS
ELKINS         PTCLDY    -9 -13  83 CALM      30.43S
$$

WVZ052-061200-
Eastern Panhandle of West Virginia

CITY           SKY/WX    TMP DP  RH WIND       PRES   REMARKS
MARTINSBURG    PTCLDY     9  -4  55 N6        30.56R WCI  -1
PETERSBURG       N/A    N/A N/A N/A MISG        N/A
$$



USA.gov is the U.S. government's official web portal to all federal, state and local government web resources and services.